This demonstration page uses our WeatherBlox Daily Observations layout. Learn more.

36.17497, -115.13722

Hourly Observations for February 7, 2018

Temp ( °F °C ) Dew Point ( °F °C ) Humidity (%) Winds ( mph kmh ) Pressure ( in mb ) Visibility ( mi km ) Precip ( " mm )
12:53 am 00:53 Clear 52 11.1 14 -10 22 22 S 6 9 30.3 1026 10 16.0934 0 0
1:53 am 01:53 Clear 50 10 16 -8.9 26 26 WNW 5 7 30.32 1027 10 16.0934 0 0
2:53 am 02:53 Clear 47 8.3 18 -7.8 31 31 WNW 6 9 30.33 1027 10 16.0934 0 0
3:53 am 03:53 Clear 48 8.9 18 -7.8 30 30 WNW 3 6 30.35 1028 10 16.0934 0 0
4:53 am 04:53 Clear 46 7.8 19 -7.2 34 34 NW 3 6 30.37 1029 10 16.0934 0 0
5:53 am 05:53 Clear 45 7.2 20 -6.7 37 37 Calm 30.39 1029 10 16.0934 0 0
6:53 am 06:53 Sunny 45 7.2 20 -6.7 37 37 WNW 5 7 30.4 1030 10 16.0934 0 0
7:53 am 07:53 Sunny 49 9.4 18 -7.8 29 29 Calm 30.42 1030 10 16.0934 0 0
8:53 am 08:53 Sunny 54 12.2 18 -7.8 24 24 Calm 30.44 1031 10 16.0934 0 0
9:53 am 09:53 Sunny 59 15 16 -8.9 18 18 WNW 3 6 30.43 1031 10 16.0934 0 0
10:53 am 10:53 Sunny 62 16.7 14 -10 15 15 VRB 5 7 30.42 1030 10 16.0934 0 0
11:53 am 11:53 Sunny 64 17.8 14 -10 14 14 ENE 6 9 30.39 1029 10 16.0934 0 0
12:53 pm 12:53 Sunny 65 18.3 15 -9.4 14 14 ESE 6 9 30.35 1028 10 16.0934 0 0
1:53 pm 13:53 Sunny 66 18.9 15 -9.4 14 14 ESE 6 9 30.33 1027 10 16.0934 0 0
2:53 pm 14:53 Sunny 67 19.4 14 -10 13 13 Calm 30.32 1027 10 16.0934 0 0
3:53 pm 15:53 Sunny 67 19.4 14 -10 13 13 Calm 30.3 1026 10 16.0934 0 0
4:53 pm 16:53 Sunny 66 18.9 16 -8.9 14 14 E 5 7 30.31 1027 10 16.0934 0 0
5:53 pm 17:53 Clear 65 18.3 17 -8.3 16 16 Calm 30.32 1027 10 16.0934 0 0
6:53 pm 18:53 Clear 58 14.4 19 -7.2 22 22 WNW 5 7 30.34 1027 10 16.0934 0 0
7:53 pm 19:53 Clear 57 13.9 21 -6.1 25 25 NW 6 9 30.35 1028 10 16.0934 0 0
8:53 pm 20:53 Clear 55 12.8 21 -6.1 26 26 NW 7 11 30.35 1028 10 16.0934 0 0
9:53 pm 21:53 Clear 54 12.2 21 -6.1 28 28 WNW 5 7 30.35 1028 10 16.0934 0 0
10:53 pm 22:53 Clear 52 11.1 22 -5.6 31 31 NW 3 6 30.34 1028 10 16.0934 0 0
11:53 pm 23:53 Clear 55 12.8 14 -10 20 20 NNW 9 15 30.33 1027 10 16.0934 0 0

Powered by AerisWeather